Weather History for KWJF - September, 2014

Change the Weather History Date:

Tuesday, September 9, 2014

  Actual Average Record
Temperature  
Mean Temperature 80 °F 76 °F  
Max Temperature 93 °F 93 °F 107 °F (1951)
Min Temperature 68 °F 59 °F 47 °F (2002)
Cooling Degree Days 16    
Month to date cooling degree days 115  
Year to date cooling degree days 1766  
Growing Degree Days 30 (Base 50)    
Moisture  
Dew Point 20 °F    
Average Humidity 12    
Maximum Humidity 23    
Minimum Humidity 4    
Precipitation  
Precipitation 0.00 in 0.01 in 0.06 in (1982)
Month to date precipitation T 0.03  
Year to date precipitation 2.35 5.13  
Since 1 July precipitation 0.03 0.22  
Snow  
Snow 0.00 in - 0.00 in ()
Month to date snowfall 0.0  
Since 1 July snowfall 0.0  
Since 1 September snowfall 0.0  
Snow Depth 0.00 in    
Sea Level Pressure  
Sea Level Pressure 29.95 in    
Wind  
Wind Speed 14 mph (West)    
Max Wind Speed 26 mph    
Max Gust Speed 31 mph    
Visibility 10 miles    
Events      
T = Trace of Precipitation, MM = Missing Value Source: NWS Daily Summary

Daily Weather History Graph

Daily Weather History Graph

Search for Another Location

Airport or City:

Trip Planner

Search our weather history database for the weather conditions in past years. The results will help you decide how hot, cold, wet, or windy it might be!

Date:

Astronomy

Sep. 09, 2014 Rise Set
Actual Time 6:31 AM PDT 7:08 PM PDT
Civil Twilight 6:06 AM PDT 7:33 PM PDT
Nautical Twilight 5:36 AM PDT 8:03 PM PDT
Astronomical Twilight 5:05 AM PDT 8:33 PM PDT
Moon 7:35 PM PDT (9/9) 7:10 AM PDT (9/9)
Length of Visible Light 13h 27m
Length of Day
12h 36m
Full, 99% of the Moon is Illuminated
Sep 9
Full
Sep 15
Last Quarter
Sep 23
New
Oct 1
First Quarter
Oct 8
Full

Hourly Weather History & Observations

Time (PDT) Temp. Dew Point Humidity Pressure Visibility Wind Dir Wind Speed Gust Speed Precip Events Conditions
12:56 AM - - N/A% 29.96 in - North - - N/A   Unknown
1:56 AM - - N/A% 29.96 in - North - - N/A   Unknown
2:56 AM - - N/A% 29.96 in - North - - N/A   Unknown
3:56 AM - - N/A% 29.96 in - North - - N/A   Unknown
4:56 AM - - N/A% 29.96 in - North - - N/A   Unknown
5:56 AM - - N/A% 29.97 in - North - - N/A   Unknown
6:56 AM - - N/A% 29.99 in - North - - N/A   Unknown
7:56 AM - - N/A% 30.00 in - North - - N/A   Unknown
8:56 AM - - N/A% 29.99 in - North - - N/A   Unknown
9:56 AM 81.0 °F 34.0 °F 18% 30.00 in - WSW 11.5 mph - N/A   Unknown
10:56 AM 84.9 °F 23.0 °F 10% 29.99 in 10.0 mi West 12.7 mph 17.3 mph N/A   Clear
11:56 AM 88.0 °F 19.0 °F 8% 29.96 in - North - - N/A   Unknown
12:56 PM 90.0 °F 9.0 °F 5% 29.94 in - WNW 4.6 mph - N/A   Unknown
2:56 PM 91.9 °F 6.1 °F 4% 29.91 in 10.0 mi WSW 17.3 mph 25.3 mph N/A   Clear
3:56 PM 91.9 °F 10.9 °F 5% 29.90 in 10.0 mi WSW 15.0 mph - N/A   Clear
4:56 PM 89.1 °F 12.9 °F 6% 29.90 in 10.0 mi West 24.2 mph 29.9 mph N/A   Clear
5:56 PM 86.0 °F 18.0 °F 8% 29.90 in 10.0 mi West 25.3 mph - N/A   Clear
6:56 PM 80.1 °F 24.1 °F 13% 29.91 in 10.0 mi West 19.6 mph - N/A   Clear
7:56 PM 77.0 °F 23.0 °F 13% 29.93 in 10.0 mi WSW 13.8 mph - N/A   Clear
9:56 PM 70.0 °F 30.0 °F 23% 29.96 in 10.0 mi WSW 10.4 mph - N/A   Clear
10:56 PM 71.1 °F 30.0 °F 22% 29.96 in 10.0 mi West 12.7 mph - N/A   Clear
11:56 PM 68.0 °F 25.0 °F 20% 29.91 in 10.0 mi WSW 4.6 mph - N/A   Clear